Tracking 19485 objects as of 22-Jan-2019
HD Live streaming from Space Station
objects crossing your sky now

LEMUR 2 MONSON

Track LEMUR 2 MONSON now!
10-day predictions
LEMUR 2 MONSON is classified as:


NORAD ID: 42839
Int'l Code: 2017-042Q
Perigee: 591.3 km
Apogee: 608.8 km
Inclination: 97.6 °
Period: 96.5 minutes
Semi major axis: 6971 km
RCS: Unknown
Launch date: July 14, 2017
Source: United States (US)
Launch site: TYURATAM MISSILE AND SPACE COMPLEX (TTMTR)
aabbcc
Your satellite tracking list
Your tracking list is empty




NASA's NSSDC Master Catalog

Two Line Element Set (TLE):
1 42839U 17042Q   19020.66636851 +.00000343 +00000-0 +39456-4 0  9994
2 42839 097.5821 280.1354 0012535 186.7819 173.3232 14.91614627082775
Source of the keplerian elements: AFSPC